This is the latest recevied weather packets stored in our database for station/object W6SNO-1. If no packets are shown the sender has not sent any weather packets the latest 10 day(s).
| Time | Temp. | Humidity | Pressure | Rain* | Wind** | Luminosity | Snow |
|---|---|---|---|---|---|---|---|
| 1787530544 | 32.22° C | 38% | 1011.3 hPa | 0 mm | - | 273 W/m² | - |
| 1787530244 | 32.22° C | 38% | 1011.2 hPa | 0 mm | - | 282 W/m² | - |
| 1787529940 | 32.78° C | 38% | 1011.1 hPa | 0 mm | - | 286 W/m² | - |
| 1787529631 | 32.78° C | 36% | 1011.3 hPa | 0 mm | - | 321 W/m² | - |
| 1787529020 | 32.78° C | 32% | 1011.3 hPa | 0 mm | - | 348 W/m² | - |
| 1787528716 | 32.78° C | 32% | 1011.4 hPa | 0 mm | - | 348 W/m² | - |
| 1787528415 | 33.33° C | 32% | 1011.2 hPa | 0 mm | - | 369 W/m² | - |
| 1787528112 | 33.33° C | 31% | 1011.5 hPa | 0 mm | - | 394 W/m² | - |
| 1787527808 | 33.33° C | 30% | 1011.3 hPa | 0 mm | - | 406 W/m² | - |
| 1787527504 | 33.33° C | 30% | 1011.3 hPa | 0 mm | - | 400 W/m² | - |
| 1787527199 | 33.33° C | 29% | 1011.2 hPa | 0 mm | - | 411 W/m² | - |
| 1787526895 | 33.33° C | 30% | 1011.3 hPa | 0 mm | - | 430 W/m² | - |
| 1787526590 | 33.33° C | 30% | 1011.6 hPa | 0 mm | - | 459 W/m² | - |
| 1787526287 | 33.33° C | 30% | 1011.7 hPa | 0 mm | - | 459 W/m² | - |
| 1787525983 | 33.33° C | 29% | 1011.7 hPa | 0 mm | - | 511 W/m² | - |
| 1787525679 | 33.33° C | 30% | 1011.8 hPa | 0 mm | - | 536 W/m² | - |
| 1787525378 | 33.33° C | 30% | 1011.8 hPa | 0 mm | - | 521 W/m² | - |
| 1787524773 | 32.78° C | 32% | 1012 hPa | 0 mm | - | 526 W/m² | - |
| 1787524470 | 32.78° C | 32% | 1012.1 hPa | 0 mm | - | 526 W/m² | - |
| 1787524165 | 32.78° C | 32% | 1011.9 hPa | 0 mm | - | 527 W/m² | - |
| 1787523860 | 32.78° C | 32% | 1011.9 hPa | 0 mm | - | 595 W/m² | - |
| 1787523561 | 32.78° C | 32% | 1012 hPa | 0 mm | - | 595 W/m² | - |
| 1787523256 | 32.78° C | 32% | 1012.2 hPa | 0 mm | - | 610 W/m² | - |
| 1787522952 | 32.78° C | 32% | 1012.4 hPa | 0 mm | - | 598 W/m² | - |
| 1787522648 | 32.78° C | 32% | 1012.3 hPa | 0 mm | - | 601 W/m² | - |
* Rain latest hour (hover to see other rain measurements)
** Current wind speed in m/s (hover to see current wind gust speed)